Location: Unspecified
(0.0000°N, 0.0000°E)
Time: 09:26:29
(UTC+00:00)

OBJECT H - Pass Details

Date: 11 December 2025
Orbit: 1149 x 1149 km, 50.0° (Epoch: 14 January)

Event Time Altitude Azimuth Distance (km) Brightness Sun altitude
Exits shadow 04:15:21 35° 322° (NW) 1,749 ? -22.4°
Drops below altitude 10° 04:21:08 10° 12° (NNE) 3,031 ? -21.1°
Sets 04:24:08 0° 21° (NNE) 3,990 ? -20.4°
